Location: Aulnoy
(48.8410°N, 3.0967°E)
Time: 15:12:06
(UTC+00:00)

Cosmos 1340 - Pass Details

Date: 09 February 2023
Orbit: 478 x 483 km, 81.2° (Epoch: 25 March)

Event Time Altitude Azimuth Distance (km) Brightness Sun altitude
Rises 17:43:04 0° 349° (N) 2,559 6.2 -7.9°
Reaches altitude 10° 17:45:11 10° 351° (N) 1,676 5.3 -8.2°
Maximum altitude 17:48:51 76° 78° (ENE) 505 2.5 -8.8°
Drops below altitude 10° 17:52:30 10° 164° (SSE) 1,669 5.2 -9.4°
Sets 17:54:36 0° 166° (SSE) 2,547 6.2 -9.8°
